Showing default

GOES 13, 29155

Orbit data source: Space-Track

GOES 13, 29155 is a payload satellite owned by NOAA (US) that was launched on Wed, 24 May 2006 UTC via a DELTA 4M+(4,2) launch vehicle from the Air Force Eastern Test Range (AFETR). Payloads include a variety of satellites, spacecraft, and rockets equipped with specific instruments for various scientific and technological missions. These include communications satellites like Starlink; space stations such as the ISS; scientific satellites like the Hubble; Earth observation satellites from companies like Planet Labs, Umbra, and HawkEye 360; GPS; miniature CubeSats for education and research; and military/defense satellites.

Not visible in the next 10 days
GOES 13 details
Identifier
29155, 2006-018A
Orbit
Active
Last TLE update1 day ago
Origin
Flag of USNOAA (US)
ManufacturerBoeing/ES
MissionOn reserve Civil Weather
Bus & MotorHS-601, R-4D-11-300
Mass3,209 kg wet, 1,543 kg dry
Launch date (UTC)
2006-05-24 (19 years ago)
Launch vehicle
DELTA 4M+(4,2)
Launch site
Air Force Eastern Test Range (AFETR)
Object type
Payload
Rocket body
Debris
Shape & HBRBox + 1 Pan + 1 Ant, 10 m
Radar Cross Section30.033 m², Large (>1 m²)

Expand to show TLE details & history

TLE from 1 day ago
0 GOES 13
1 29155U 06018A   24347.89802769  .00000007  00000-0  00000-0 0  9993
2 29155   3.0934  83.1401 0064324 256.9135 155.6459  0.98827949 37809
Epoch: 2024-12-12T21:33Z
Definitive object data (Epoch: 2024-12-12T21:33:09.592Z)
Latitude2.478°
Longitude90.58916°
Altitude36,444.102 km
Speed3.042 km/s
True Right ascension09h 03m 48s
True Declination2° 28' 32"
Sunlit
Object was in daylight at TLE epoch
Visualization TLE readout
Latitude2.82603°
Longitude103.17105°
Altitude36,462.495 km
Speed3.041 km/s
Apparent Right ascension09h 49m 59s
Apparent Declination-2° 21' 28"
Sunlit
Object is in daylight
Visualization observer readout
Local Sidereal Time21:13:38
Azimuth345.304° N
Elevation-51.547°
Doppler factor1
Orbital elements
Apogee altitude36,471.193 km
Perigee altitude35,923.468 km
Semi-major axis42,575.468 km
Eccentricity0.0064324
Inclination3.0934°
RAAN83.1401°
Arg. of periapsis256.9135°
True anomaly155.94765°
Mean anomaly155.6459°
Eccentric anomaly155.79699°
Mean motion0.24706 °/min
BSTARUnknown
Orbital period1457.13 mins
Loading maneuver chart data...
Loading historical data...
Loading historical data...
Loading historical data...
Loading historical data...
Loading historical data...
Loading historical data...
Loading historical data...
Other satellites on launch #18 in the year 2006 (2006-05-24 UTC)

GOES 13 Visibility forecast

Observer location: undefined°, undefined

GOES 13 is not visible in the next 10 days
Span
Click to sort rows by Start time (UTC) header in descending order
Start Az.
Max El. time (UTC)
Max El. Az.
Max El.
End time (UTC)
End Az.
|